Simultaneous Nadir Overpasses (SNOs) Predictions

Prediction of SNOs between GOES-14 and NPP Satellite Orbit:

Table of predicted SNOs for the next 14.0 days since TLE Epoch: 1/15/2022
Index Date Time (GOES-14) GOES-14 Lat,Lon NPP Lat,Lon Distance(km) Time Diff (sec)
1 01/15/2022 08:14:40 0.01,-104.59 -0.58,-102.06 288.90 80
2 01/16/2022 20:33:53 -0.00,-104.25 -0.66,-107.34 351.12 80
3 01/17/2022 20:17:47 -0.01,-104.25 0.33,-102.80 166.06 80
4 01/19/2022 08:36:53 0.00,-104.59 0.80,-108.07 397.36 80
5 01/20/2022 08:20:48 0.01,-104.59 -0.25,-103.54 119.92 80
6 01/22/2022 20:23:54 -0.00,-104.26 0.01,-104.29 3.07 80
7 01/25/2022 08:24:15 -0.00,-104.60 0.06,-105.03 49.00 80
8 01/26/2022 08:08:09 0.00,-104.60 -0.93,-100.49 468.30 80
9 01/27/2022 20:30:01 -0.00,-104.27 -0.36,-105.77 171.40 80
10 01/28/2022 20:08:36 -0.01,-104.26 0.70,-101.24 345.32 80
